Regional Weather Roundup
Issued by NWS Bismarck, ND

Home | Current Version | Previous Version | Text Only | Print | Product List | Glossary On
Versions: 1 2 3 4 5 6 7 8 9 10 11 12 13 14 15 16 17 18 19 20 21 22 23 24 25 26 27 28 29 30 31 32 33 34 35 36 37 38 39 40 41 42 43 44 45 46 47 48 49 50
000
ASUS43 KBIS 270610
RWRBIS

NWR BROADCAST TEXT
NATIONAL WEATHER SERVICE BISMARCK ND
1200 AM CST FRI FEB 27 2015

NOTE: "FAIR" INDICATES FEW OR NO CLOUDS BELOW 12,000 FEET WITH NO
SIGNIFICANT WEATHER AND/OR OBSTRUCTIONS TO VISIBILITY.


CITY           SKY/WX    TMP DP  RH WIND       PRES   REMARKS
WILLISTON      MOCLDY   -12 -16  82 CALM      30.41F
MINOT          MOCLDY    -9 -16  71 SW8       30.43F WCI -25
MINOT AFB      NOT AVBL
BISMARCK       CLEAR     -6 -12  75 W3        30.49F
DICKINSON      CLEAR     -5 -11  75 S8        30.35F WCI -20
GARRISON         N/A    -14 -18  82 CALM      30.44F
HETTINGER ARPT CLEAR     -8 -12  83 CALM      30.38F
JAMESTOWN      PTCLDY    -8 -13  78 W6        30.46F WCI -21
CARRINGTON     FAIR      -9 -13  84 MISG      30.46F
CROSBY         FAIR     -11 -15  84 S10       30.41F WCI -30
HARVEY         FAIR      -9 -13  84 W10       30.46F WCI -28
HAZEN          FAIR     -11 -18  70 CALM      30.47F
LINTON         FAIR     -11 -17  77 CALM      30.48F
MANDAN         FAIR      -8 -13  77 W3        30.46F
OAKES            N/A     -8 N/A N/A SW6       30.50F WCI -21
RUGBY          FAIR     -13 -18  77 W6        30.45F WCI -27
WATFORD CITY   FAIR     -11 -17  77 CALM      30.39F
$$

CITY           SKY/WX    TMP DP  RH WIND       PRES   REMARKS
GRAND FORKS    CLEAR     -9 -14  78 W8        30.48F WCI -25
GRAND FORKS AF NOT AVBL
DEVILS LAKE    PTCLDY   N/A N/A N/A MISG        N/A
FARGO          PTCLDY    -5 -12  72 W7        30.51F WCI -19
CANDO          FAIR      -9 -13  84 W9        30.44S WCI -27
CAVALIER       FAIR       0  -9  65 W7        30.44F WCI -13
GWINNER        CLEAR     -4 -11  71 W10       30.50F WCI -21
ROLLA          FAIR      -9 -17  70 SW6       30.38F WCI -23
WALHALLA         N/A      0  -9  65 W5        30.44F WCI -10
$$

CITY           SKY/WX    TMP DP  RH WIND       PRES   REMARKS
ABERDEEN       CLEAR     -6 -12  75 NW8       30.53F WCI -21
MOBRIDGE       PTCLDY    -9 -13  83 N5        30.45F WCI -20
BUFFALO          N/A     -1  -7  75 SW6       30.26F WCI -13
RAPID CITY     PTCLDY    -9 -14  78 NW5       30.35F WCI -20
GLASGOW        CLEAR      2  -5  72 E12       30.30F WCI -15
SIDNEY         CLEAR      0 -13  55 CALM      30.43F
WOLF POINT     CLEAR      2  -6  69 NE3       30.37F
GLENDIVE       CLEAR      1  -6  71 S6        30.35F WCI -10
MILES CITY     CLEAR      1  -4  79 SE9       30.32F WCI -14
BAKER          CLEAR     -2  -7  79 S9        30.32F WCI -18
$$

CITY           SKY/WX    TMP DP  RH WIND       PRES   REMARKS
BILLINGS       CLEAR      5  -1  76 CALM      30.16F
GREAT FALLS    CLEAR     10   4  76 S7        30.02F WCI  -1
REGINA         CLEAR    -11 -17  77 SE9       30.36F WCI -29
ESTEVAN        CLEAR    -13 -18  77 S5        30.40F WCI -25
$$



USA.gov is the U.S. government's official web portal to all federal, state and local government web resources and services.